Regional Weather Roundup
Issued by NWS

Home | Current Version | Previous Version | Graphics & Text | Print | Product List | Glossary On
Versions: 1 2 3 4 5 6 7 8 9 10 11 12 13 14 15 16 17 18 19 20 21 22 23 24 25 26 27 28 29 30 31 32 33 34 35 36 37 38 39 40 41 42 43 44 45 46 47 48 49 50
000
ASUS43 KBIS 200720
RWRND

NORTH DAKOTA REGIONAL WEATHER ROUNDUP
NATIONAL WEATHER SERVICE BISMARCK ND
200 AM CDT MON OCT 20 2014

NOTE: "FAIR" INDICATES FEW OR NO CLOUDS BELOW 12,000 FEET WITH NO
SIGNIFICANT WEATHER AND/OR OBSTRUCTIONS TO VISIBILITY.


NDZ001>003-009>011-017-200800-
NORTHWEST NORTH DAKOTA

CITY           SKY/WX    TMP DP  RH WIND       PRES   REMARKS
WILLISTON      FAIR      39  34  82 SW3       29.99S
MINOT          FAIR      46  33  60 SW12      29.99R
MINOT AFB      FAIR      39  34  83 W8        29.98R
$$

NDZ018>021-031>035-040>046-200800-
SOUTHWEST NORTH DAKOTA

CITY           SKY/WX    TMP DP  RH WIND       PRES   REMARKS
BISMARCK       FAIR      37  35  92 CALM      30.04R
DICKINSON      FAIR      40  34  79 S10       30.02S
GARRISON         N/A     36  31  82 CALM      30.02R
HETTINGER ARPT FAIR      34  29  82 CALM      30.06S
$$

NDZ004>008-012>016-024-026-027-054-200800-
NORTHEAST NORTH DAKOTA

CITY           SKY/WX    TMP DP  RH WIND       PRES   REMARKS
GRAND FORKS    FAIR      42  37  82 W7        29.95R
GRND FRKS AFB  FAIR      43  38  83 NW9       29.96R
DEVILS LAKE    FAIR      43  34  70 W5        29.98R
$$

NDZ022-023-025-028>030-036>039-047>053-200800-
SOUTHEAST NORTH DAKOTA

CITY           SKY/WX    TMP DP  RH WIND       PRES   REMARKS
FARGO          FAIR      45  37  73 NW6       29.95R
JAMESTOWN      FAIR      42  36  79 CALM      29.99R
$$




USA.gov is the U.S. government's official web portal to all federal, state and local government web resources and services.